Glasgow, MT

12:36 AM MDT on May 23, 2017 (GMT -0600)
Wokal-Glasgow International

Weather History for KGGW - March, 2014

Change the Weather History Date:

Thursday, March 13, 2014

  Actual Average Record
Temperature  
Mean Temperature 42 °F 30 °F  
Max Temperature 51 °F 41 °F 69 °F (2012)
Min Temperature 32 °F 20 °F -34 °F (1897)
Degree Days  
Heating Degree Days 24 35  
Month to date heating degree days 491  
Since 1 July heating degree days 6861  
Cooling Degree Days 0 0  
Month to date cooling degree days 0  
Year to date cooling degree days 0  
Moisture  
Dew Point 26 °F    
Average Humidity 58    
Maximum Humidity 79    
Minimum Humidity 25    
Precipitation  
Precipitation 0.00 in 0.01 in 0.55 in (1898)
Month to date precipitation 0.15  
Year to date precipitation 0.78  
Snow  
Snow 0.00 in 0.10 in 1.70 in (1990)
Month to date snowfall 2.2  
Since 1 July snowfall 29.2  
Snow Depth -    
Sea Level Pressure  
Sea Level Pressure 29.82 in    
Wind  
Wind Speed 12 mph (WNW)    
Max Wind Speed 28 mph    
Max Gust Speed 39 mph    
Visibility 10 miles    
Events      
T = Trace of Precipitation, MM = Missing Value Source: NWS Daily Summary

Daily Weather History Graph

Daily Weather History Graph

Search for Another Location

Airport or City:

Trip Planner

Search our weather history database for the weather conditions in past years. The results will help you decide how hot, cold, wet, or windy it might be!

Date:

Astronomy

Mar. 13, 2014 Rise Set
Actual Time 7:23 AM MDT 7:08 PM MDT
Civil Twilight 6:52 AM MDT 7:40 PM MDT
Nautical Twilight 6:16 AM MDT 8:16 PM MDT
Astronomical Twilight 5:39 AM MDT 8:53 PM MDT
Moon 4:28 PM MDT (3/13) 5:42 AM MDT (3/13)
Length of Visible Light 12h 47m
Length of Day
11h 45m
Waxing Gibbous, 92% of the Moon is Illuminated
Mar 13
Waxing Gibbous
Mar 16
Full
Mar 23
Last Quarter
Mar 30
New
Apr 7
First Quarter

Hourly Weather History & Observations

Time (MDT) Temp. Windchill Dew Point Humidity Pressure Visibility Wind Dir Wind Speed Gust Speed Precip Events Conditions
12:53 AM 37.9 °F 35.5 °F 28.0 °F 68% 29.86 in 10.0 mi WNW 3.5 mph - N/A   Clear
1:53 AM 37.9 °F 31.5 °F 28.0 °F 68% 29.83 in 10.0 mi WSW 9.2 mph - N/A   Clear
2:53 AM 42.1 °F 35.2 °F 28.0 °F 58% 29.81 in 10.0 mi WSW 12.7 mph - N/A   Clear
3:53 AM 37.9 °F 30.9 °F 28.0 °F 68% 29.80 in 10.0 mi West 10.4 mph - N/A   Clear
4:53 AM 36.0 °F 29.0 °F 27.0 °F 70% 29.78 in 10.0 mi West 9.2 mph - N/A   Clear
5:53 AM 35.1 °F 27.9 °F 27.0 °F 72% 29.76 in 10.0 mi West 9.2 mph - N/A   Partly Cloudy
6:53 AM 34.0 °F 26.0 °F 27.0 °F 75% 29.76 in 10.0 mi West 10.4 mph - N/A   Clear
7:53 AM 33.1 °F 26.9 °F 26.1 °F 75% 29.76 in 10.0 mi West 6.9 mph - N/A   Clear
8:53 AM 39.0 °F 32.8 °F 27.0 °F 62% 29.77 in 10.0 mi NW 9.2 mph - N/A   Clear
9:53 AM 45.0 °F 38.2 °F 26.1 °F 48% 29.76 in 10.0 mi WNW 15.0 mph - N/A   Clear
10:53 AM 46.9 °F - 26.1 °F 44% 29.76 in 10.0 mi NW 21.9 mph 31.1 mph N/A   Clear
11:53 AM 48.9 °F - 27.0 °F 43% 29.77 in 10.0 mi NW 18.4 mph - N/A   Clear
12:53 PM 48.9 °F - 27.0 °F 43% 29.80 in 10.0 mi NNW 26.5 mph 32.2 mph N/A   Partly Cloudy
1:53 PM 48.0 °F - 30.0 °F 50% 29.82 in 10.0 mi NNW 27.6 mph 39.1 mph N/A   Mostly Cloudy
2:53 PM 46.0 °F 38.0 °F 28.0 °F 50% 29.83 in 10.0 mi WNW 21.9 mph - N/A   Overcast
3:53 PM 48.9 °F - 27.0 °F 43% 29.83 in 10.0 mi WNW 26.5 mph 35.7 mph N/A   Overcast
4:53 PM 46.0 °F 37.6 °F 25.0 °F 44% 29.84 in 10.0 mi WNW 24.2 mph 35.7 mph N/A   Clear
5:53 PM 46.0 °F 37.6 °F 21.9 °F 39% 29.85 in 10.0 mi WNW 24.2 mph 36.8 mph N/A   Mostly Cloudy
6:53 PM 42.1 °F 35.2 °F 21.9 °F 45% 29.88 in 10.0 mi WNW 12.7 mph - N/A   Scattered Clouds
7:53 PM 37.9 °F 30.0 °F 27.0 °F 65% 29.91 in 10.0 mi West 12.7 mph - N/A   Clear
8:53 PM 35.1 °F 26.9 °F 26.1 °F 70% 29.90 in 10.0 mi WNW 11.5 mph - N/A   Clear
9:53 PM 34.0 °F 25.0 °F 26.1 °F 73% 29.90 in 10.0 mi WNW 12.7 mph - N/A   Clear
10:53 PM 32.0 °F 24.8 °F 26.1 °F 79% 29.92 in 10.0 mi West 8.1 mph - N/A   Mostly Cloudy
11:53 PM 33.1 °F 24.9 °F 26.1 °F 75% 29.91 in 10.0 mi NW 10.4 mph - N/A   Overcast